Wind_Speed
36 37 38 39 41 44 45 45 45 45 44 44 44 43 40 41 43 43 42 43 43 42 42 42 43 42 42 42 41 41 42 42 42 43 43 43 42 42 43 42 42 41 40 39
33 33 34 37 38 40 42 43 43 43 43 43 43 43 40 40 42 43 43 43 43 43 43 43 44 44 44 43 43 43 44 45 45 45 45 45 46 46 45 45 45 43 42 42
31 30 31 33 35 37 39 39 40 40 41 41 41 41 39 39 41 42 43 43 43 44 44 44 44 44 44 44 44 45 46 47 48 48 48 48 48 48 48 47 46 46 46 46
31 30 29 29 30 33 34 35 36 37 38 39 39 38 35 37 39 40 40 41 41 42 43 43 43 44 44 45 45 46 47 48 49 50 51 51 50 50 49 49 49 49 50 49
29 29 29 28 28 29 30 31 32 33 35 36 36 36 32 34 35 36 37 38 39 40 40 41 42 43 44 45 46 47 48 49 50 52 53 53 53 53 52 52 52 52 52 52
27 28 28 28 27 27 28 28 29 30 31 32 31 32 29 30 31 31 33 34 35 37 38 39 41 42 43 45 46 48 49 51 52 53 54 55 56 56 56 56 55 55 54 54
27 27 26 26 26 26 26 26 26 27 28 28 26 27 27 25 27 28 29 31 33 34 36 38 39 41 42 44 47 49 50 52 54 56 57 58 59 60 60 60 60 59 58 57
25 25 26 25 25 24 24 25 25 25 25 23 22 23 23 22 23 25 28 30 31 33 35 37 39 41 43 45 48 50 52 54 56 58 60 61 62 63 63 63 63 63 62 60
24 24 24 24 23 23 23 23 22 22 21 20 20 20 20 20 21 24 26 28 30 32 34 36 38 41 43 45 48 50 53 55 57 60 61 63 64 65 66 66 66 66 65 63
22 22 22 21 21 21 21 21 21 21 19 18 17 17 18 19 21 24 26 28 29 31 33 35 38 40 42 45 47 50 53 55 58 60 62 64 65 66 67 67 67 67 66 64
20 20 19 20 20 20 20 20 20 19 18 17 16 16 18 20 22 24 25 26 28 29 31 34 36 38 41 44 47 50 52 55 57 60 62 63 64 65 66 66 66 65 65 64
19 18 18 18 18 18 18 18 18 18 16 15 15 17 19 20 21 22 23 25 26 28 29 31 33 36 39 42 45 48 51 53 55 57 58 59 60 60 60 60 60 60 60 60
18 18 18 18 17 17 17 17 17 16 15 15 15 17 18 19 20 20 21 23 24 26 27 29 31 33 36 39 42 44 47 49 50 50 51 51 51 52 53 54 54 54 54 54
18 17 17 16 16 16 16 16 16 16 15 15 15 17 19 18 17 18 20 20 22 23 24 26 28 31 33 36 38 40 41 41 41 41 41 41 42 43 44 44 45 46 46 47
17 17 17 16 16 15 15 16 16 16 15 15 16 17 18 17 16 17 17 18 19 21 22 24 26 28 30 32 33 34 33 31 30 30 29 29 31 32 32 33 35 37 38 39
17 17 16 16 16 16 16 16 16 15 15 15 15 16 16 16 16 16 15 16 17 19 20 21 23 25 26 27 28 28 27 25 23 22 20 19 19 20 22 24 26 28 30 31
17 17 17 16 16 16 16 16 15 15 15 15 14 14 14 15 15 15 15 15 16 17 18 19 20 22 22 23 24 24 23 21 18 16 13 11 11 12 14 16 18 21 22 24
17 17 17 17 17 16 15 15 15 14 14 13 13 13 13 13 13 13 13 14 15 15 15 16 17 19 19 20 21 21 20 18 16 12 9 5 4 6 8 10 13 16 18 19
18 17 17 17 17 16 15 14 14 14 13 12 11 11 11 11 12 12 12 13 14 14 14 14 15 16 16 17 18 18 17 15 14 11 9 6 3 2 4 6 8 11 14 15
17 17 17 17 16 15 14 13 13 13 12 11 10 10 10 10 10 11 11 12 13 13 13 13 13 13 14 14 15 15 15 14 12 10 9 7 4 2 0 3 6 8 10 13
17 17 17 17 16 15 14 13 13 12 11 10 10 10 10 10 10 10 11 12 12 12 11 11 11 12 12 12 12 13 13 12 11 10 9 7 5 3 1 1 3 6 8 10
17 17 17 17 16 15 14 13 13 12 11 11 10 10 10 10 11 11 12 12 11 11 11 10 10 10 10 10 11 11 11 11 10 10 9 8 7 5 3 4 5 7 8 10
17 17 16 16 16 15 15 14 14 13 12 12 11 11 11 11 12 12 12 11 11 10 10 10 10 10 10 10 10 10 10 10 10 9 9 9 8 7 7 7 8 9 11 13
18 18 16 16 16 16 16 15 14 14 13 13 12 12 12 12 12 12 11 11 11 10 10 10 9 9 9 9 9 9 9 9 10 10 9 9 9 9 9 10 11 13 14 16
19 19 18 17 17 17 17 16 15 15 14 14 14 13 13 12 12 12 11 11 11 11 10 10 9 8 8 8 8 8 9 9 10 11 11 11 11 12 12 13 14 15 16 18
20 20 19 19 19 18 18 17 16 16 15 15 14 14 13 13 12 12 12 11 11 11 10 10 9 9 9 8 8 9 10 11 11 12 13 13 14 14 14 15 17 18 19 21
Wind_Direction
207 211 214 217 219 222 224 226 229 231 232 233 233 234 234 237 240 242 244 247 250 252 254 255 256 256 255 254 254 253 254 255 255 256 258 258 259 259 260 261 261 262 264 266
206 208 211 214 217 220 224 227 230 233 235 236 236 238 239 240 242 244 246 248 251 253 254 256 257 258 258 258 257 257 257 257 258 258 258 258 258 258 259 260 261 263 265 266
205 206 209 213 216 220 224 228 231 234 237 239 239 240 243 243 244 247 249 250 252 254 255 257 259 259 260 260 260 260 259 259 260 260 259 259 259 259 259 260 261 262 262 263
202 203 206 210 215 219 223 227 231 235 237 239 240 242 243 247 247 249 251 252 254 255 257 259 260 261 261 262 262 262 262 262 262 261 261 260 260 259 259 258 258 259 260 262
197 199 202 207 213 216 220 224 229 233 236 239 241 244 242 247 249 250 251 253 254 256 258 260 260 261 262 263 263 263 264 264 263 263 263 262 261 260 259 259 259 259 260 261
196 198 201 205 210 215 218 222 227 231 235 238 240 244 243 245 248 250 251 252 254 257 258 260 261 262 263 264 265 266 266 266 266 265 265 264 263 262 261 260 259 259 259 260
195 199 201 204 210 214 217 220 224 228 232 236 236 241 242 241 243 246 249 251 254 257 260 262 264 265 266 267 268 268 269 268 268 267 266 265 264 263 263 261 260 259 258 259
196 199 202 205 211 213 215 218 221 224 228 230 230 234 237 236 238 242 247 252 256 259 262 264 266 267 268 269 269 270 270 270 269 268 267 266 265 264 263 262 261 260 259 258
198 201 203 206 211 213 214 216 218 222 223 224 225 230 234 236 239 244 249 254 259 262 265 267 269 270 270 271 271 271 271 270 269 268 267 266 265 263 262 261 260 259 258 258
198 202 205 207 209 210 212 212 214 217 220 222 224 230 236 241 246 251 255 259 263 266 268 271 272 273 274 274 274 273 273 272 270 269 267 266 264 262 260 259 258 258 257 257
200 202 204 205 206 206 207 209 214 217 220 224 228 236 242 248 253 257 261 265 267 270 272 274 276 277 278 279 279 278 276 275 274 272 269 267 265 262 260 258 257 256 255 255
199 200 201 202 202 204 206 210 215 221 225 231 240 247 250 255 259 262 266 269 271 274 276 278 282 284 285 286 286 284 283 281 278 275 272 268 265 262 259 257 256 254 254 253
198 200 201 202 204 207 211 216 221 227 233 240 248 256 257 260 263 268 270 272 275 278 282 286 289 292 294 294 293 292 291 287 283 280 276 270 265 262 259 256 254 253 252 252
200 202 205 208 211 214 218 223 229 236 242 246 251 258 263 265 268 271 275 278 281 284 289 293 297 301 303 303 303 302 300 295 291 285 279 272 266 262 258 255 252 251 250 250
205 208 212 216 218 221 226 232 237 243 245 248 252 258 262 268 273 277 281 285 289 293 297 301 305 308 312 314 314 314 312 307 301 293 283 276 267 260 255 252 250 249 248 249
210 214 218 221 225 229 232 237 242 244 247 249 252 256 259 266 272 277 283 290 295 299 303 307 311 316 320 322 324 326 324 318 312 304 294 282 269 260 253 247 245 246 247 247
215 219 223 227 230 232 235 239 243 247 249 250 250 253 258 265 270 276 284 294 301 306 310 313 318 324 327 330 333 337 337 333 330 322 309 290 270 258 251 245 242 243 243 242
221 225 227 229 232 236 237 239 244 247 248 247 249 252 257 263 272 279 288 298 305 309 317 321 325 331 335 338 341 344 346 349 349 349 346 330 292 258 240 233 234 235 237 239
226 229 229 229 233 236 238 239 241 241 242 243 247 252 257 264 277 286 292 302 308 313 318 324 330 335 340 344 349 353 358 1 6 13 16 14 355 273 233 229 234 236 238 236
227 229 230 230 233 234 235 236 235 234 238 242 248 254 261 272 286 292 296 302 312 318 320 323 330 338 344 350 355 360 3 6 9 16 21 23 24 17 278 218 224 231 234 240
229 229 230 231 231 231 232 231 229 230 236 241 248 256 266 278 289 295 299 303 309 319 324 326 328 334 342 350 359 6 9 12 15 17 15 15 11 6 349 271 255 255 256 260
230 230 230 230 228 227 229 229 228 232 236 241 250 259 270 281 291 296 300 305 308 315 321 325 329 335 339 345 353 1 4 7 11 15 16 17 16 10 345 319 303 294 289 283
231 229 229 230 229 228 230 231 232 233 239 245 252 261 271 281 289 295 300 303 305 311 318 322 322 326 331 334 340 346 352 358 2 3 4 1 356 350 340 327 315 307 303 299
229 228 228 229 227 228 231 234 236 238 242 248 253 261 270 279 285 290 295 301 304 307 313 317 320 322 325 329 335 340 344 350 352 353 352 349 345 338 332 326 320 315 311 309
230 228 228 229 230 230 233 236 238 239 243 248 253 261 268 275 282 286 288 292 299 304 307 309 311 317 325 329 333 340 343 344 345 345 343 339 336 332 327 323 319 316 313 311
233 231 230 232 233 234 236 238 239 242 245 248 252 259 265 270 276 282 285 289 292 297 300 300 303 308 316 322 328 332 335 337 337 336 335 334 332 329 325 321 318 316 314 313
Height
5645 5654 5663 5671 5678 5685 5691 5697 5703 5709 5715 5722 5727 5732 5739 5743 5745 5749 5753 5756 5758 5761 5762 5763 5764 5766 5768 5771 5773 5774 5776 5777 5778 5778 5779 5780 5781 5781 5782 5782 5782 5783 5783 5784
5643 5651 5658 5664 5671 5678 5685 5692 5698 5703 5709 5715 5721 5726 5732 5736 5738 5741 5744 5747 5750 5752 5754 5755 5757 5758 5760 5762 5764 5765 5766 5767 5768 5769 5770 5771 5772 5772 5773 5773 5774 5774 5775 5775
5641 5649 5654 5661 5668 5674 5680 5687 5692 5698 5703 5708 5714 5720 5724 5727 5730 5733 5736 5739 5741 5744 5746 5747 5749 5750 5751 5753 5754 5755 5756 5757 5758 5759 5760 5761 5762 5763 5763 5764 5765 5765 5765 5765
5637 5645 5652 5658 5664 5670 5676 5681 5687 5692 5697 5702 5708 5712 5717 5719 5722 5725 5728 5731 5733 5735 5737 5739 5740 5741 5742 5743 5744 5745 5746 5746 5747 5747 5748 5749 5751 5752 5753 5754 5754 5754 5754 5754
5636 5643 5649 5655 5661 5666 5671 5676 5681 5686 5691 5697 5701 5705 5711 5712 5715 5718 5721 5723 5725 5727 5729 5730 5731 5732 5732 5733 5734 5734 5735 5735 5735 5735 5736 5737 5738 5740 5741 5741 5742 5742 5743 5744
5635 5641 5646 5652 5657 5662 5667 5672 5677 5681 5686 5692 5696 5699 5703 5706 5708 5710 5713 5715 5717 5719 5720 5721 5722 5723 5723 5724 5724 5724 5724 5724 5723 5723 5723 5724 5725 5726 5727 5728 5728 5730 5730 5731
5633 5639 5644 5650 5654 5660 5665 5669 5674 5678 5681 5687 5690 5693 5697 5700 5702 5704 5706 5708 5710 5711 5712 5713 5714 5714 5714 5714 5714 5713 5713 5712 5711 5710 5710 5710 5710 5711 5712 5713 5714 5715 5716 5718
5632 5638 5643 5648 5652 5657 5661 5666 5671 5675 5678 5682 5685 5688 5692 5694 5696 5698 5700 5701 5703 5704 5705 5705 5705 5705 5705 5704 5703 5702 5701 5699 5697 5696 5695 5694 5694 5694 5695 5696 5697 5699 5701 5703
5632 5637 5641 5646 5650 5654 5658 5662 5667 5671 5674 5678 5681 5684 5687 5689 5691 5692 5694 5695 5696 5697 5697 5697 5696 5696 5695 5693 5692 5690 5688 5685 5683 5680 5679 5677 5676 5676 5677 5678 5679 5682 5685 5687
5631 5636 5640 5644 5648 5652 5656 5660 5664 5667 5670 5674 5678 5680 5683 5684 5685 5687 5688 5689 5689 5689 5689 5688 5687 5686 5684 5682 5679 5676 5673 5670 5667 5663 5661 5659 5657 5656 5657 5659 5661 5664 5667 5671
5631 5635 5639 5643 5646 5650 5654 5658 5661 5664 5668 5671 5674 5678 5678 5679 5680 5681 5682 5682 5682 5681 5680 5679 5677 5675 5673 5670 5666 5662 5658 5654 5649 5645 5642 5639 5637 5637 5637 5640 5643 5646 5650 5654
5630 5634 5637 5641 5645 5648 5652 5655 5658 5662 5665 5667 5670 5675 5672 5673 5674 5675 5675 5675 5674 5673 5672 5670 5668 5665 5661 5657 5652 5647 5642 5636 5631 5626 5622 5619 5618 5617 5619 5622 5625 5629 5634 5639
5629 5633 5637 5640 5646 5648 5650 5653 5656 5659 5661 5663 5665 5669 5667 5667 5668 5668 5668 5668 5667 5665 5663 5661 5658 5655 5650 5645 5639 5632 5626 5619 5613 5607 5603 5601 5600 5601 5603 5606 5610 5615 5620 5625
5629 5632 5637 5640 5643 5645 5648 5651 5653 5656 5658 5659 5661 5662 5661 5662 5662 5662 5662 5661 5659 5658 5656 5653 5650 5645 5640 5634 5627 5619 5612 5604 5598 5592 5588 5586 5586 5587 5590 5593 5598 5603 5608 5613
5628 5631 5634 5637 5640 5643 5645 5648 5650 5652 5654 5656 5657 5657 5657 5657 5657 5657 5656 5655 5653 5651 5649 5646 5642 5637 5631 5625 5617 5610 5601 5594 5587 5582 5578 5576 5576 5578 5581 5585 5589 5594 5599 5604
5626 5630 5632 5635 5638 5640 5642 5644 5646 5648 5650 5651 5652 5652 5652 5653 5652 5652 5651 5650 5648 5645 5643 5639 5635 5630 5625 5618 5611 5603 5595 5588 5582 5577 5573 5571 5572 5573 5575 5579 5583 5588 5593 5598
5624 5627 5630 5633 5635 5637 5640 5642 5643 5644 5646 5647 5647 5649 5649 5649 5648 5648 5647 5645 5643 5640 5637 5634 5630 5625 5620 5614 5607 5600 5593 5586 5580 5575 5571 5570 5570 5571 5574 5577 5581 5585 5589 5593
5622 5625 5627 5630 5633 5635 5639 5638 5639 5640 5642 5643 5643 5644 5645 5645 5644 5643 5642 5640 5638 5636 5633 5630 5626 5622 5616 5611 5605 5599 5592 5587 5581 5576 5573 5572 5571 5572 5574 5577 5580 5583 5587 5591
5620 5622 5624 5627 5629 5631 5634 5634 5635 5637 5638 5639 5640 5640 5641 5641 5640 5639 5638 5636 5634 5632 5629 5626 5623 5619 5614 5609 5604 5599 5593 5588 5584 5580 5577 5576 5575 5575 5576 5578 5580 5583 5586 5589
5617 5619 5622 5624 5626 5628 5631 5631 5632 5634 5635 5636 5636 5637 5637 5637 5637 5636 5634 5632 5631 5628 5626 5623 5620 5617 5613 5609 5604 5600 5595 5591 5587 5584 5582 5580 5579 5579 5579 5580 5582 5584 5586 5588
5614 5616 5618 5620 5622 5624 5627 5627 5629 5632 5633 5633 5633 5633 5634 5633 5633 5632 5630 5629 5627 5625 5623 5620 5618 5615 5612 5608 5605 5601 5597 5594 5590 5588 5585 5583 5582 5582 5582 5583 5584 5585 5586 5587
5610 5612 5614 5616 5619 5623 5623 5624 5626 5628 5628 5629 5630 5630 5630 5630 5629 5628 5627 5626 5624 5622 5620 5618 5616 5613 5611 5608 5605 5602 5599 5596 5593 5590 5588 5587 5585 5585 5584 5584 5584 5585 5585 5585
5607 5610 5611 5614 5617 5618 5619 5621 5622 5624 5625 5626 5626 5627 5627 5627 5626 5625 5624 5623 5621 5620 5618 5616 5614 5611 5609 5607 5605 5602 5599 5597 5594 5592 5590 5589 5587 5586 5586 5585 5584 5584 5584 5583
5603 5605 5608 5610 5612 5614 5615 5617 5619 5620 5621 5622 5623 5623 5623 5623 5623 5622 5621 5619 5618 5617 5615 5613 5612 5610 5608 5606 5604 5602 5599 5597 5595 5593 5591 5589 5588 5587 5586 5585 5584 5582 5581 5580
5599 5601 5604 5606 5608 5610 5611 5613 5615 5616 5617 5618 5619 5619 5619 5619 5619 5618 5618 5616 5615 5614 5613 5611 5609 5608 5606 5604 5602 5601 5599 5597 5595 5593 5591 5589 5587 5586 5584 5583 5581 5580 5578 5576
5595 5597 5600 5602 5604 5606 5608 5609 5611 5612 5613 5614 5615 5615 5615 5616 5615 5615 5614 5613 5612 5611 5610 5608 5607 5606 5604 5603 5601 5599 5597 5595 5593 5591 5590 5588 5586 5584 5582 5580 5578 5576 5574 5571